Newark, NJ

7:54 PM EST on February 13, 2016 (GMT -0500)
Newark International

Weather History for KEWR - February, 2014

Change the Weather History Date:

Sunday, February 16, 2014

  Actual Average Record
Temperature  
Mean Temperature 25 °F 35 °F  
Max Temperature 30 °F 43 °F 74 °F (1954)
Min Temperature 19 °F 27 °F 0 °F (1943)
Degree Days  
Heating Degree Days 40 30  
Month to date heating degree days 588 505  
Since 1 July heating degree days 3486 3289  
Cooling Degree Days 0 0  
Month to date cooling degree days 0 0  
Year to date cooling degree days 0 0  
Moisture  
Dew Point 11 °F    
Average Humidity 54    
Maximum Humidity 65    
Minimum Humidity 43    
Precipitation  
Precipitation 0.00 in 0.10 in 1.00 in (1958)
Month to date precipitation 4.38 1.60  
Year to date precipitation 7.16 5.14  
Snow  
Snow 0.00 in 0.30 in 9.10 in (1958)
Month to date snowfall 28.2 5.4  
Since 1 July snowfall 58.4 19.1  
Snow Depth 16.00 in    
Sea Level Pressure  
Sea Level Pressure 29.95 in    
Wind  
Wind Speed 13 mph (WNW)    
Max Wind Speed 26 mph    
Max Gust Speed 39 mph    
Visibility 10 miles    
Events      
T = Trace of Precipitation, MM = Missing Value Source: NWS Daily Summary

Daily Weather History Graph

Daily Weather History Graph

Search for Another Location

Airport or City:

Trip Planner

Search our weather history database for the weather conditions in past years. The results will help you decide how hot, cold, wet, or windy it might be!

Date:

Astronomy

Feb. 16, 2014 Rise Set
Actual Time 6:49 AM EST 5:32 PM EST
Civil Twilight 6:21 AM EST 6:00 PM EST
Nautical Twilight 5:49 AM EST 6:32 PM EST
Astronomical Twilight 5:17 AM EST 7:04 PM EST
Moon 7:28 PM EST (2/16) 7:16 AM EST (2/16)
Length of Visible Light 11h 39m
Length of Day
10h 43m
Full, 97% of the Moon is Illuminated
Feb 16
Full
Feb 22
Last Quarter
Mar 1
New
Mar 8
First Quarter
Mar 16
Full

Hourly Weather History & Observations

Time (EST) Temp. Windchill Dew Point Humidity Pressure Visibility Wind Dir Wind Speed Gust Speed Precip Events Conditions
12:51 AM 26.1 °F 13.6 °F 14.0 °F 60% 29.78 in 10.0 mi WNW 16.1 mph 29.9 mph N/A   Partly Cloudy
1:51 AM 24.1 °F 10.6 °F 12.0 °F 60% 29.82 in 10.0 mi WNW 17.3 mph 26.5 mph N/A   Scattered Clouds
2:51 AM 23.0 °F 9.6 °F 12.0 °F 63% 29.83 in 10.0 mi WNW 16.1 mph 21.9 mph N/A   Scattered Clouds
3:51 AM 21.9 °F 11.0 °F 10.9 °F 63% 29.85 in 10.0 mi WNW 10.4 mph - N/A   Partly Cloudy
4:51 AM 21.0 °F 9.3 °F 10.0 °F 63% 29.89 in 10.0 mi West 11.5 mph - N/A   Partly Cloudy
5:51 AM 21.0 °F 8.6 °F 10.0 °F 63% 29.92 in 10.0 mi West 12.7 mph - N/A   Partly Cloudy
6:51 AM 19.9 °F 7.9 °F 9.0 °F 62% 29.93 in 10.0 mi WNW 11.5 mph - N/A   Mostly Cloudy
7:51 AM 19.9 °F 6.7 °F 9.0 °F 62% 29.95 in 10.0 mi NW 13.8 mph - N/A   Mostly Cloudy
8:51 AM 21.9 °F 9.8 °F 9.0 °F 58% 29.95 in 10.0 mi WNW 12.7 mph 18.4 mph N/A   Overcast
9:51 AM 23.0 °F 11.7 °F 10.0 °F 58% 29.97 in 10.0 mi West 11.5 mph - N/A   Overcast
10:51 AM 25.0 °F 13.1 °F 10.9 °F 55% 29.98 in 10.0 mi West 13.8 mph - N/A   Overcast
11:51 AM 26.1 °F 15.0 °F 10.9 °F 53% 29.97 in 10.0 mi West 12.7 mph - N/A   Overcast
12:51 PM 28.0 °F 19.3 °F 10.0 °F 47% 29.96 in 10.0 mi WNW 9.2 mph - N/A   Overcast
1:51 PM 28.9 °F 20.4 °F 10.9 °F 47% 29.94 in 10.0 mi West 9.2 mph 19.6 mph N/A   Overcast
2:51 PM 30.0 °F 22.4 °F 10.9 °F 45% 29.94 in 10.0 mi West 8.1 mph - N/A   Overcast
3:51 PM 28.9 °F 18.6 °F 10.0 °F 45% 29.95 in 10.0 mi West 12.7 mph 20.7 mph N/A   Overcast
4:51 PM 28.0 °F 17.5 °F 10.9 °F 49% 29.94 in 10.0 mi WSW 12.7 mph - N/A   Overcast
5:51 PM 27.0 °F 16.7 °F 10.9 °F 51% 29.98 in 10.0 mi West 11.5 mph - N/A   Mostly Cloudy
6:51 PM 26.1 °F 15.6 °F 12.9 °F 58% 30.02 in 10.0 mi WNW 11.5 mph - N/A   Overcast
7:51 PM 25.0 °F 13.6 °F 14.0 °F 63% 30.04 in 10.0 mi WNW 12.7 mph - N/A   Overcast
8:51 PM 24.1 °F 12.0 °F 10.9 °F 57% 30.07 in 10.0 mi NW 13.8 mph 23.0 mph N/A   Overcast
9:51 PM 23.0 °F 10.1 °F 10.9 °F 60% 30.07 in 10.0 mi NW 15.0 mph - N/A   Overcast
10:51 PM 21.9 °F 9.2 °F 10.0 °F 60% 30.10 in 10.0 mi NW 13.8 mph 26.5 mph N/A   Overcast
11:51 PM 21.0 °F 9.3 °F 7.0 °F 55% 30.12 in 10.0 mi NW 11.5 mph - N/A   Scattered Clouds